Year,Month,Day,Hour,Minute,Value (Times are PST for temperature in C)
2020,04,13,00,00,7.70
2020,04,13,00,01,7.70
2020,04,13,00,02,7.70
2020,04,13,00,03,7.70
2020,04,13,00,04,7.70
2020,04,13,00,05,7.70
2020,04,13,00,06,7.70
2020,04,13,00,07,7.60
2020,04,13,00,08,7.60
2020,04,13,00,09,7.60
2020,04,13,00,10,7.60
2020,04,13,00,11,7.50
2020,04,13,00,12,7.50
2020,04,13,00,13,7.40
2020,04,13,00,14,7.30
2020,04,13,00,15,7.30
2020,04,13,00,16,7.30
2020,04,13,00,17,7.20
2020,04,13,00,18,7.20
2020,04,13,00,19,7.20
2020,04,13,00,20,7.20
2020,04,13,00,21,7.10
2020,04,13,00,22,7.10
2020,04,13,00,23,7.10
2020,04,13,00,24,7.10
2020,04,13,00,25,7.10
2020,04,13,00,26,7.10
2020,04,13,00,27,7.10
2020,04,13,00,28,7.10
2020,04,13,00,29,7.10
2020,04,13,00,30,7.10
2020,04,13,00,31,7.10
2020,04,13,00,32,7.10
2020,04,13,00,33,7.10
2020,04,13,00,34,7.10
2020,04,13,00,35,7.10
2020,04,13,00,36,7.10
2020,04,13,00,37,7.20
2020,04,13,00,38,7.20
2020,04,13,00,39,7.20
2020,04,13,00,40,7.10
2020,04,13,00,41,7.10
2020,04,13,00,42,7.20
2020,04,13,00,43,7.20
2020,04,13,00,44,7.20
2020,04,13,00,45,7.20
2020,04,13,00,46,7.20
2020,04,13,00,47,7.20
2020,04,13,00,48,7.20
2020,04,13,00,49,7.20
2020,04,13,00,50,7.20
2020,04,13,00,51,7.20
2020,04,13,00,52,7.30
2020,04,13,00,53,7.30
2020,04,13,00,54,7.30
2020,04,13,00,55,7.40
2020,04,13,00,56,7.40
2020,04,13,00,57,7.40
2020,04,13,00,58,7.50
2020,04,13,00,59,7.50
2020,04,13,01,00,7.50
2020,04,13,01,01,7.50
2020,04,13,01,02,7.50
2020,04,13,01,03,7.50
2020,04,13,01,04,7.60
2020,04,13,01,05,7.60
2020,04,13,01,06,7.60
2020,04,13,01,07,7.60
2020,04,13,01,08,7.70
2020,04,13,01,09,7.70
2020,04,13,01,10,7.70
2020,04,13,01,11,7.70
2020,04,13,01,12,7.70
2020,04,13,01,13,7.70
2020,04,13,01,14,7.70
2020,04,13,01,15,7.70
2020,04,13,01,16,7.60
2020,04,13,01,17,7.60
2020,04,13,01,18,7.60
2020,04,13,01,19,7.60
2020,04,13,01,20,7.60
2020,04,13,01,21,7.50
2020,04,13,01,22,7.60
2020,04,13,01,23,7.60
2020,04,13,01,24,7.50
2020,04,13,01,25,7.50
2020,04,13,01,26,7.50
2020,04,13,01,27,7.50
2020,04,13,01,28,7.50
2020,04,13,01,29,7.50
2020,04,13,01,30,7.40
2020,04,13,01,31,7.40
2020,04,13,01,32,7.40
2020,04,13,01,33,7.40
2020,04,13,01,34,7.40
2020,04,13,01,35,7.40
2020,04,13,01,36,7.40
2020,04,13,01,37,7.40
2020,04,13,01,38,7.40
2020,04,13,01,39,7.30
2020,04,13,01,40,7.30
2020,04,13,01,41,7.30
2020,04,13,01,42,7.30
2020,04,13,01,43,7.30
2020,04,13,01,44,7.30
2020,04,13,01,45,7.20
2020,04,13,01,46,7.20
2020,04,13,01,47,7.20
2020,04,13,01,48,7.10
2020,04,13,01,49,7.10
2020,04,13,01,50,7.00
2020,04,13,01,51,7.00
2020,04,13,01,52,6.90
2020,04,13,01,53,6.90
2020,04,13,01,54,6.80
2020,04,13,01,55,6.80
2020,04,13,01,56,6.70
2020,04,13,01,57,6.70
2020,04,13,01,58,6.70
2020,04,13,01,59,6.60
2020,04,13,02,00,6.60
2020,04,13,02,01,6.60
2020,04,13,02,02,6.50
2020,04,13,02,03,6.50
2020,04,13,02,04,6.50
2020,04,13,02,05,6.50
2020,04,13,02,06,6.40
2020,04,13,02,07,6.40
2020,04,13,02,08,6.40
2020,04,13,02,09,6.40
2020,04,13,02,10,6.40
2020,04,13,02,11,6.30
2020,04,13,02,12,6.30
2020,04,13,02,13,6.30
2020,04,13,02,14,6.30
2020,04,13,02,15,6.20
2020,04,13,02,16,6.20
2020,04,13,02,17,6.20
2020,04,13,02,18,6.20
2020,04,13,02,19,6.20
2020,04,13,02,20,6.10
2020,04,13,02,21,6.10
2020,04,13,02,22,6.00
2020,04,13,02,23,6.00
2020,04,13,02,24,5.90
2020,04,13,02,25,5.90
2020,04,13,02,26,5.80
2020,04,13,02,27,5.80
2020,04,13,02,28,5.80
2020,04,13,02,29,5.70
2020,04,13,02,30,5.70
2020,04,13,02,31,5.70
2020,04,13,02,32,5.70
2020,04,13,02,33,5.70
2020,04,13,02,34,5.70
2020,04,13,02,35,5.70
2020,04,13,02,36,5.60
2020,04,13,02,37,5.60
2020,04,13,02,38,5.60
2020,04,13,02,39,5.60
2020,04,13,02,40,5.60
2020,04,13,02,41,5.60
2020,04,13,02,42,5.50
2020,04,13,02,43,5.50
2020,04,13,02,44,5.50
2020,04,13,02,45,5.50
2020,04,13,02,46,5.40
2020,04,13,02,47,5.40
2020,04,13,02,48,5.40
2020,04,13,02,49,5.40
2020,04,13,02,50,5.30
2020,04,13,02,51,5.30
2020,04,13,02,52,5.30
2020,04,13,02,53,5.30
2020,04,13,02,54,5.30
2020,04,13,02,55,5.30
2020,04,13,02,56,5.30
2020,04,13,02,57,5.30
2020,04,13,02,58,5.30
2020,04,13,02,59,5.30
2020,04,13,03,00,5.30
2020,04,13,03,01,5.30
2020,04,13,03,02,5.20
2020,04,13,03,03,5.20
2020,04,13,03,04,5.20
2020,04,13,03,05,5.20
2020,04,13,03,06,5.20
2020,04,13,03,07,5.20
2020,04,13,03,08,5.20
2020,04,13,03,09,5.20
2020,04,13,03,10,5.20
2020,04,13,03,11,5.20
2020,04,13,03,12,5.20
2020,04,13,03,13,5.20
2020,04,13,03,14,5.20
2020,04,13,03,15,5.20
2020,04,13,03,16,5.20
2020,04,13,03,17,5.20
2020,04,13,03,18,5.10
2020,04,13,03,19,5.10
2020,04,13,03,20,5.10
2020,04,13,03,21,5.10
2020,04,13,03,22,5.10
2020,04,13,03,23,5.10
2020,04,13,03,24,5.10
2020,04,13,03,25,5.10
2020,04,13,03,26,5.10
2020,04,13,03,27,5.10
2020,04,13,03,28,5.10
2020,04,13,03,29,5.10
2020,04,13,03,30,5.00
2020,04,13,03,31,5.00
2020,04,13,03,32,5.00
2020,04,13,03,33,5.00
2020,04,13,03,34,5.00
2020,04,13,03,35,5.00
2020,04,13,03,36,4.90
2020,04,13,03,37,4.90
2020,04,13,03,38,4.90
2020,04,13,03,39,4.90
2020,04,13,03,40,4.90
2020,04,13,03,41,4.90
2020,04,13,03,42,4.90
2020,04,13,03,43,4.90
2020,04,13,03,44,4.90
2020,04,13,03,45,4.90
2020,04,13,03,46,4.90
2020,04,13,03,47,4.90
2020,04,13,03,48,4.90
2020,04,13,03,49,4.80
2020,04,13,03,50,4.80
2020,04,13,03,51,4.80
2020,04,13,03,52,4.80
2020,04,13,03,53,4.80
2020,04,13,03,54,4.70
2020,04,13,03,55,4.70
2020,04,13,03,56,4.70
2020,04,13,03,57,4.70
2020,04,13,03,58,4.70
2020,04,13,03,59,4.70
2020,04,13,04,00,4.70
2020,04,13,04,01,4.70
2020,04,13,04,02,4.70
2020,04,13,04,03,4.80
2020,04,13,04,04,4.80
2020,04,13,04,05,4.80
2020,04,13,04,06,4.80
2020,04,13,04,07,4.80
2020,04,13,04,08,4.80
2020,04,13,04,09,4.80
2020,04,13,04,10,4.80
2020,04,13,04,11,4.80
2020,04,13,04,12,4.80
2020,04,13,04,13,4.80
2020,04,13,04,14,4.80
2020,04,13,04,15,4.70
2020,04,13,04,16,4.70
2020,04,13,04,17,4.70
2020,04,13,04,18,4.70
2020,04,13,04,19,4.70
2020,04,13,04,20,4.70
2020,04,13,04,21,4.70
2020,04,13,04,22,4.60
2020,04,13,04,23,4.60
2020,04,13,04,24,4.60
2020,04,13,04,25,4.60
2020,04,13,04,26,4.60
2020,04,13,04,27,4.60
2020,04,13,04,28,4.70
2020,04,13,04,29,4.70
2020,04,13,04,30,4.70
2020,04,13,04,31,4.70
2020,04,13,04,32,4.70
2020,04,13,04,33,4.70
2020,04,13,04,34,4.70
2020,04,13,04,35,4.70
2020,04,13,04,36,4.60
2020,04,13,04,37,4.60
2020,04,13,04,38,4.60
2020,04,13,04,39,4.60
2020,04,13,04,40,4.60
2020,04,13,04,41,4.50
2020,04,13,04,42,4.50
2020,04,13,04,43,4.50
2020,04,13,04,44,4.40
2020,04,13,04,45,4.40
2020,04,13,04,46,4.40
2020,04,13,04,47,4.40
2020,04,13,04,48,4.40
2020,04,13,04,49,4.40
2020,04,13,04,50,4.30
2020,04,13,04,51,4.30
2020,04,13,04,52,4.30
2020,04,13,04,53,4.30
2020,04,13,04,54,4.30
2020,04,13,04,55,4.30
2020,04,13,04,56,4.30
2020,04,13,04,57,4.30
2020,04,13,04,58,4.30
2020,04,13,04,59,4.30
2020,04,13,05,00,4.20
2020,04,13,05,01,4.20
2020,04,13,05,02,4.20
2020,04,13,05,03,4.20
2020,04,13,05,04,4.20
2020,04,13,05,05,4.30
2020,04,13,05,06,4.20
2020,04,13,05,07,4.30
2020,04,13,05,08,4.30
2020,04,13,05,09,4.30
2020,04,13,05,10,4.30
2020,04,13,05,11,4.30
2020,04,13,05,12,4.20
2020,04,13,05,13,4.30
2020,04,13,05,14,4.20
2020,04,13,05,15,4.20
2020,04,13,05,16,4.20
2020,04,13,05,17,4.20
2020,04,13,05,18,4.20
2020,04,13,05,19,4.20
2020,04,13,05,20,4.20
2020,04,13,05,21,4.20
2020,04,13,05,22,4.20
2020,04,13,05,23,4.20
2020,04,13,05,24,4.20
2020,04,13,05,25,4.20
2020,04,13,05,26,4.20
2020,04,13,05,27,4.20
2020,04,13,05,28,4.20
2020,04,13,05,29,4.20
2020,04,13,05,30,4.20
2020,04,13,05,31,4.20
2020,04,13,05,32,4.20
2020,04,13,05,33,4.20
2020,04,13,05,34,4.20
2020,04,13,05,35,4.10
2020,04,13,05,36,4.10
2020,04,13,05,37,4.10
2020,04,13,05,38,4.10
2020,04,13,05,39,4.10
2020,04,13,05,40,4.10
2020,04,13,05,41,4.10
2020,04,13,05,42,4.10
2020,04,13,05,43,4.10
2020,04,13,05,44,4.10
2020,04,13,05,45,4.10
2020,04,13,05,46,4.10
2020,04,13,05,47,4.10
2020,04,13,05,48,4.10
2020,04,13,05,49,4.10
2020,04,13,05,50,4.10
2020,04,13,05,51,4.00
2020,04,13,05,52,4.00
2020,04,13,05,53,4.00
2020,04,13,05,54,4.10
2020,04,13,05,55,4.10
2020,04,13,05,56,4.00
2020,04,13,05,57,4.00
2020,04,13,05,58,4.00
2020,04,13,05,59,4.00
2020,04,13,06,00,4.00
2020,04,13,06,01,3.90
2020,04,13,06,02,3.90
2020,04,13,06,03,3.90
2020,04,13,06,04,3.90
2020,04,13,06,05,3.90
2020,04,13,06,06,3.90
2020,04,13,06,07,3.90
2020,04,13,06,08,3.90
2020,04,13,06,09,3.90
2020,04,13,06,10,3.90
2020,04,13,06,11,3.90
2020,04,13,06,12,3.90
2020,04,13,06,13,3.90
2020,04,13,06,14,3.90
2020,04,13,06,15,3.90
2020,04,13,06,16,3.90
2020,04,13,06,17,3.90
2020,04,13,06,18,3.90
2020,04,13,06,19,3.90
2020,04,13,06,20,3.90
2020,04,13,06,21,3.90
2020,04,13,06,22,3.90
2020,04,13,06,23,3.90
2020,04,13,06,24,3.90
2020,04,13,06,25,3.90
2020,04,13,06,26,3.90
2020,04,13,06,27,3.90
2020,04,13,06,28,3.90
2020,04,13,06,29,3.90
2020,04,13,06,30,3.90
2020,04,13,06,31,3.90
2020,04,13,06,32,3.90
2020,04,13,06,33,3.90
2020,04,13,06,34,3.90
2020,04,13,06,35,3.90
2020,04,13,06,36,3.90
2020,04,13,06,37,3.90
2020,04,13,06,38,3.90
2020,04,13,06,39,3.90
2020,04,13,06,40,3.90
2020,04,13,06,41,3.90
2020,04,13,06,42,3.90
2020,04,13,06,43,3.90
2020,04,13,06,44,3.90
2020,04,13,06,45,3.90
2020,04,13,06,46,3.90
2020,04,13,06,47,3.90
2020,04,13,06,48,3.90
2020,04,13,06,49,3.90
2020,04,13,06,50,3.90
2020,04,13,06,51,3.80
2020,04,13,06,52,3.80
2020,04,13,06,53,3.80
2020,04,13,06,54,3.80
2020,04,13,06,55,3.80
2020,04,13,06,56,3.90
2020,04,13,06,57,3.90
2020,04,13,06,58,3.90
2020,04,13,06,59,3.90
2020,04,13,07,00,3.90
2020,04,13,07,01,3.90
2020,04,13,07,02,3.90
2020,04,13,07,03,3.90
2020,04,13,07,04,3.90
2020,04,13,07,05,3.90
2020,04,13,07,06,3.90
2020,04,13,07,07,3.90
2020,04,13,07,08,3.90
2020,04,13,07,09,3.90
2020,04,13,07,10,4.00
2020,04,13,07,11,4.00
2020,04,13,07,12,4.00
2020,04,13,07,13,4.10
2020,04,13,07,14,4.10
2020,04,13,07,15,4.20
2020,04,13,07,16,4.20
2020,04,13,07,17,4.30
2020,04,13,07,18,4.30
2020,04,13,07,19,4.40
2020,04,13,07,20,4.40
2020,04,13,07,21,4.50
2020,04,13,07,22,4.60
2020,04,13,07,23,4.60
2020,04,13,07,24,4.70
2020,04,13,07,25,4.70
2020,04,13,07,26,4.80
2020,04,13,07,27,4.80
2020,04,13,07,28,4.80
2020,04,13,07,29,4.90
2020,04,13,07,30,4.90
2020,04,13,07,31,4.90
2020,04,13,07,32,5.00
2020,04,13,07,33,5.00
2020,04,13,07,34,5.10
2020,04,13,07,35,5.10
2020,04,13,07,36,5.20
2020,04,13,07,37,5.20
2020,04,13,07,38,5.20
2020,04,13,07,39,5.20
2020,04,13,07,40,5.30
2020,04,13,07,41,5.30
2020,04,13,07,42,5.30
2020,04,13,07,43,5.30
2020,04,13,07,44,5.30
2020,04,13,07,45,5.40
2020,04,13,07,46,5.40
2020,04,13,07,47,5.40
2020,04,13,07,48,5.40
2020,04,13,07,49,5.50
2020,04,13,07,50,5.50
2020,04,13,07,51,5.50
2020,04,13,07,52,5.60
2020,04,13,07,53,5.60
2020,04,13,07,54,5.60
2020,04,13,07,55,5.70
2020,04,13,07,56,5.70
2020,04,13,07,57,5.70
2020,04,13,07,58,5.70
2020,04,13,07,59,5.80
2020,04,13,08,00,5.80
2020,04,13,08,01,5.80
2020,04,13,08,02,5.80
2020,04,13,08,03,5.90
2020,04,13,08,04,5.90
2020,04,13,08,05,6.00
2020,04,13,08,06,6.00
2020,04,13,08,07,6.00
2020,04,13,08,08,6.10
2020,04,13,08,09,6.10
2020,04,13,08,10,6.20
2020,04,13,08,11,6.20
2020,04,13,08,12,6.30
2020,04,13,08,13,6.30
2020,04,13,08,14,6.30
2020,04,13,08,15,6.40
2020,04,13,08,16,6.50
2020,04,13,08,17,6.50
2020,04,13,08,18,6.60
2020,04,13,08,19,6.70
2020,04,13,08,20,6.80
2020,04,13,08,21,6.90
2020,04,13,08,22,7.00
2020,04,13,08,23,7.10
2020,04,13,08,24,7.30
2020,04,13,08,25,7.40
2020,04,13,08,26,7.50
2020,04,13,08,27,7.60
2020,04,13,08,28,7.70
2020,04,13,08,29,7.80
2020,04,13,08,30,7.90
2020,04,13,08,31,7.90
2020,04,13,08,32,8.00
2020,04,13,08,33,8.10
2020,04,13,08,34,8.20
2020,04,13,08,35,8.30
2020,04,13,08,36,8.30
2020,04,13,08,37,8.30
2020,04,13,08,38,8.40
2020,04,13,08,39,8.40
2020,04,13,08,40,8.40
2020,04,13,08,41,8.40
2020,04,13,08,42,8.40
2020,04,13,08,43,8.40
2020,04,13,08,44,8.50
2020,04,13,08,45,8.50
2020,04,13,08,46,8.60
2020,04,13,08,47,8.60
2020,04,13,08,48,8.60
2020,04,13,08,49,8.70
2020,04,13,08,50,8.70
2020,04,13,08,51,8.70
2020,04,13,08,52,8.80
2020,04,13,08,53,8.80
2020,04,13,08,54,8.80
2020,04,13,08,55,8.80
2020,04,13,08,56,8.80
2020,04,13,08,57,8.80
2020,04,13,08,58,8.70
2020,04,13,08,59,8.70
2020,04,13,09,00,8.60
2020,04,13,09,01,8.50
2020,04,13,09,02,8.50
2020,04,13,09,03,8.40
2020,04,13,09,04,8.40
2020,04,13,09,05,8.40
2020,04,13,09,06,8.40
2020,04,13,09,07,8.40
2020,04,13,09,08,8.50
2020,04,13,09,09,8.50
2020,04,13,09,10,8.60
2020,04,13,09,11,8.60
2020,04,13,09,12,8.70
2020,04,13,09,13,8.80
2020,04,13,09,14,8.90
2020,04,13,09,15,9.00
2020,04,13,09,16,9.10
2020,04,13,09,17,9.20
2020,04,13,09,18,9.30
2020,04,13,09,19,9.40
2020,04,13,09,20,9.50
2020,04,13,09,21,9.50
2020,04,13,09,22,9.60
2020,04,13,09,23,9.70
2020,04,13,09,24,9.70
2020,04,13,09,25,9.70
2020,04,13,09,26,9.80
2020,04,13,09,27,9.80
2020,04,13,09,28,9.80
2020,04,13,09,29,9.80
2020,04,13,09,30,9.80
2020,04,13,09,31,9.90
2020,04,13,09,32,9.90
2020,04,13,09,33,9.90
2020,04,13,09,34,9.90
2020,04,13,09,35,9.90
2020,04,13,09,36,9.90
2020,04,13,09,37,9.90
2020,04,13,09,38,9.90
2020,04,13,09,39,9.90
2020,04,13,09,40,9.90
2020,04,13,09,41,9.90
2020,04,13,09,42,9.90
2020,04,13,09,43,9.90
2020,04,13,09,44,9.90
2020,04,13,09,45,9.90
2020,04,13,09,46,9.80
2020,04,13,09,47,9.80
2020,04,13,09,48,9.80
2020,04,13,09,49,9.80
2020,04,13,09,50,9.80
2020,04,13,09,51,9.80
2020,04,13,09,52,9.80
2020,04,13,09,53,9.80
2020,04,13,09,54,9.80
2020,04,13,09,55,9.80
2020,04,13,09,56,9.80
2020,04,13,09,57,9.80
2020,04,13,09,58,9.80
2020,04,13,09,59,9.80
2020,04,13,10,00,9.80
2020,04,13,10,01,9.90
2020,04,13,10,02,9.90
2020,04,13,10,03,9.90
2020,04,13,10,04,10.00
2020,04,13,10,05,10.00
2020,04,13,10,06,10.00
2020,04,13,10,07,10.10
2020,04,13,10,08,10.10
2020,04,13,10,09,10.10
2020,04,13,10,10,10.10
2020,04,13,10,11,10.10
2020,04,13,10,12,10.10
2020,04,13,10,13,10.10
2020,04,13,10,14,10.10
2020,04,13,10,15,10.20
2020,04,13,10,16,10.20
2020,04,13,10,17,10.20
2020,04,13,10,18,10.20
2020,04,13,10,19,10.30
2020,04,13,10,20,10.30
2020,04,13,10,21,10.30
2020,04,13,10,22,10.30
2020,04,13,10,23,10.40
2020,04,13,10,24,10.40
2020,04,13,10,25,10.40
2020,04,13,10,26,10.40
2020,04,13,10,27,10.50
2020,04,13,10,28,10.50
2020,04,13,10,29,10.50
2020,04,13,10,30,10.60
2020,04,13,10,31,10.60
2020,04,13,10,32,10.60
2020,04,13,10,33,10.60
2020,04,13,10,34,10.60
2020,04,13,10,35,10.70
2020,04,13,10,36,10.70
2020,04,13,10,37,10.70
2020,04,13,10,38,10.70
2020,04,13,10,39,10.70
2020,04,13,10,40,10.70
2020,04,13,10,41,10.80
2020,04,13,10,42,10.80
2020,04,13,10,43,10.80
2020,04,13,10,44,10.90
2020,04,13,10,45,10.90
2020,04,13,10,46,10.90
2020,04,13,10,47,11.00
2020,04,13,10,48,11.00
2020,04,13,10,49,11.00
2020,04,13,10,50,11.10
2020,04,13,10,51,11.10
2020,04,13,10,52,11.10
2020,04,13,10,53,11.10
2020,04,13,10,54,11.20
2020,04,13,10,55,11.20
2020,04,13,10,56,11.20
2020,04,13,10,57,11.20
2020,04,13,10,58,11.20
2020,04,13,10,59,11.20
2020,04,13,11,00,11.20
2020,04,13,11,01,11.20
2020,04,13,11,02,11.20
2020,04,13,11,03,11.30
2020,04,13,11,04,11.30
2020,04,13,11,05,11.30
2020,04,13,11,06,11.30
2020,04,13,11,07,11.40
2020,04,13,11,08,11.40
2020,04,13,11,09,11.40
2020,04,13,11,10,11.40
2020,04,13,11,11,11.50
2020,04,13,11,12,11.50
2020,04,13,11,13,11.60
2020,04,13,11,14,11.60
2020,04,13,11,15,11.60
2020,04,13,11,16,11.60
2020,04,13,11,17,11.60
2020,04,13,11,18,11.60
2020,04,13,11,19,11.50
2020,04,13,11,20,11.50
2020,04,13,11,21,11.60
2020,04,13,11,22,11.60
2020,04,13,11,23,11.50
2020,04,13,11,24,11.50
2020,04,13,11,25,11.40
2020,04,13,11,26,11.40
2020,04,13,11,27,11.30
2020,04,13,11,28,11.30
2020,04,13,11,29,11.20
2020,04,13,11,30,11.20
2020,04,13,11,31,11.20
2020,04,13,11,32,11.20
2020,04,13,11,33,11.20
2020,04,13,11,34,11.20
2020,04,13,11,35,11.30
2020,04,13,11,36,11.30
2020,04,13,11,37,11.30
2020,04,13,11,38,11.30
2020,04,13,11,39,11.30
2020,04,13,11,40,11.30
2020,04,13,11,41,11.30
2020,04,13,11,42,11.40
2020,04,13,11,43,11.40
2020,04,13,11,44,11.40
2020,04,13,11,45,11.40
2020,04,13,11,46,11.50
2020,04,13,11,47,11.50
2020,04,13,11,48,11.40
2020,04,13,11,49,11.50
2020,04,13,11,50,11.50
2020,04,13,11,51,11.50
2020,04,13,11,52,11.50
2020,04,13,11,53,11.40
2020,04,13,11,54,11.50
2020,04,13,11,55,11.50
2020,04,13,11,56,11.40
2020,04,13,11,57,11.40
2020,04,13,11,58,11.40
2020,04,13,11,59,11.40
2020,04,13,12,00,11.30
2020,04,13,12,01,11.30
2020,04,13,12,02,11.30
2020,04,13,12,03,11.30
2020,04,13,12,04,11.40
2020,04,13,12,05,11.40
2020,04,13,12,06,11.40
2020,04,13,12,07,11.40
2020,04,13,12,08,11.50
2020,04,13,12,09,11.50
2020,04,13,12,10,11.50
2020,04,13,12,11,11.60
2020,04,13,12,12,11.60
2020,04,13,12,13,11.50
2020,04,13,12,14,11.50
2020,04,13,12,15,11.40
2020,04,13,12,16,11.40
2020,04,13,12,17,11.40
2020,04,13,12,18,11.40
2020,04,13,12,19,11.40
2020,04,13,12,20,11.40
2020,04,13,12,21,11.50
2020,04,13,12,22,11.40
2020,04,13,12,23,11.40
2020,04,13,12,24,11.40
2020,04,13,12,25,11.50
2020,04,13,12,26,11.50
2020,04,13,12,27,11.50
2020,04,13,12,28,11.50
2020,04,13,12,29,11.60
2020,04,13,12,30,11.60
2020,04,13,12,31,11.60
2020,04,13,12,32,11.60
2020,04,13,12,33,11.60
2020,04,13,12,34,11.60
2020,04,13,12,35,11.60
2020,04,13,12,36,11.70
2020,04,13,12,37,11.70
2020,04,13,12,38,11.70
2020,04,13,12,39,11.70
2020,04,13,12,40,11.60
2020,04,13,12,41,11.60
2020,04,13,12,42,11.60
2020,04,13,12,43,11.60
2020,04,13,12,44,11.60
2020,04,13,12,45,11.60
2020,04,13,12,46,11.60
2020,04,13,12,47,11.60
2020,04,13,12,48,11.60
2020,04,13,12,49,11.60
2020,04,13,12,50,11.60
2020,04,13,12,51,11.60
2020,04,13,12,52,11.60
2020,04,13,12,53,11.60
2020,04,13,12,54,11.60
2020,04,13,12,55,11.60
2020,04,13,12,56,11.60
2020,04,13,12,57,11.60
2020,04,13,12,58,11.70
2020,04,13,12,59,11.70
2020,04,13,13,00,11.80
2020,04,13,13,01,11.80
2020,04,13,13,02,11.80
2020,04,13,13,03,11.90
2020,04,13,13,04,11.90
2020,04,13,13,05,12.00
2020,04,13,13,06,12.10
2020,04,13,13,07,12.20
2020,04,13,13,08,12.30
2020,04,13,13,09,12.30
2020,04,13,13,10,12.50
2020,04,13,13,11,12.60
2020,04,13,13,12,12.70
2020,04,13,13,13,12.80
2020,04,13,13,14,12.90
2020,04,13,13,15,12.90
2020,04,13,13,16,13.00
2020,04,13,13,17,13.00
2020,04,13,13,18,13.10
2020,04,13,13,19,13.20
2020,04,13,13,20,13.20
2020,04,13,13,21,13.20
2020,04,13,13,22,13.20
2020,04,13,13,23,13.20
2020,04,13,13,24,13.20
2020,04,13,13,25,13.20
2020,04,13,13,26,13.20
2020,04,13,13,27,13.20
2020,04,13,13,28,13.20
2020,04,13,13,29,13.20
2020,04,13,13,30,13.30
2020,04,13,13,31,13.30
2020,04,13,13,32,13.30
2020,04,13,13,33,13.30
2020,04,13,13,34,13.30
2020,04,13,13,35,13.30
2020,04,13,13,36,13.30
2020,04,13,13,37,13.40
2020,04,13,13,38,13.40
2020,04,13,13,39,13.50
2020,04,13,13,40,13.60
2020,04,13,13,41,13.60
2020,04,13,13,42,13.70
2020,04,13,13,43,13.80
2020,04,13,13,44,13.80
2020,04,13,13,45,13.80
2020,04,13,13,46,13.80
2020,04,13,13,47,13.70
2020,04,13,13,48,13.60
2020,04,13,13,49,13.50
2020,04,13,13,50,13.50
2020,04,13,13,51,13.50
2020,04,13,13,52,13.40
2020,04,13,13,53,13.40
2020,04,13,13,54,13.30
2020,04,13,13,55,13.30
2020,04,13,13,56,13.20
2020,04,13,13,57,13.10
2020,04,13,13,58,13.00
2020,04,13,13,59,12.90
2020,04,13,14,00,12.80
2020,04,13,14,01,12.70
2020,04,13,14,02,12.70
2020,04,13,14,03,12.60
2020,04,13,14,04,12.60
2020,04,13,14,05,12.60
2020,04,13,14,06,12.70
2020,04,13,14,07,12.70
2020,04,13,14,08,12.70
2020,04,13,14,09,12.70
2020,04,13,14,10,12.70
2020,04,13,14,11,12.70
2020,04,13,14,12,12.70
2020,04,13,14,13,12.70
2020,04,13,14,14,12.70
2020,04,13,14,15,12.70
2020,04,13,14,16,12.70
2020,04,13,14,17,12.70
2020,04,13,14,18,12.70
2020,04,13,14,19,12.70
2020,04,13,14,20,12.70
2020,04,13,14,21,12.70
2020,04,13,14,22,12.80
2020,04,13,14,23,12.80
2020,04,13,14,24,12.80
2020,04,13,14,25,12.80
2020,04,13,14,26,12.80
2020,04,13,14,27,12.80
2020,04,13,14,28,12.80
2020,04,13,14,29,12.80
2020,04,13,14,30,12.70
2020,04,13,14,31,12.60
2020,04,13,14,32,12.60
2020,04,13,14,33,12.60
2020,04,13,14,34,12.60
2020,04,13,14,35,12.70
2020,04,13,14,36,12.80
2020,04,13,14,37,12.80
2020,04,13,14,38,12.80
2020,04,13,14,39,12.80
2020,04,13,14,40,12.90
2020,04,13,14,41,12.90
2020,04,13,14,42,12.90
2020,04,13,14,43,13.00
2020,04,13,14,44,13.00
2020,04,13,14,45,12.90
2020,04,13,14,46,12.90
2020,04,13,14,47,12.90
2020,04,13,14,48,12.80
2020,04,13,14,49,12.80
2020,04,13,14,50,12.80
2020,04,13,14,51,12.70
2020,04,13,14,52,12.70
2020,04,13,14,53,12.70
2020,04,13,14,54,12.70
2020,04,13,14,55,12.80
2020,04,13,14,56,12.80
2020,04,13,14,57,12.90
2020,04,13,14,58,13.00
2020,04,13,14,59,13.10
2020,04,13,15,00,13.20
2020,04,13,15,01,13.20
2020,04,13,15,02,13.30
2020,04,13,15,03,13.30
2020,04,13,15,04,13.30
2020,04,13,15,05,13.30
2020,04,13,15,06,13.20
2020,04,13,15,07,13.20
2020,04,13,15,08,13.20
2020,04,13,15,09,13.20
2020,04,13,15,10,13.20
2020,04,13,15,11,13.20
2020,04,13,15,12,13.20
2020,04,13,15,13,13.20
2020,04,13,15,14,13.20
2020,04,13,15,15,13.30
2020,04,13,15,16,13.30
2020,04,13,15,17,13.30
2020,04,13,15,18,13.30
2020,04,13,15,19,13.30
2020,04,13,15,20,13.30
2020,04,13,15,21,13.30
2020,04,13,15,22,13.30
2020,04,13,15,23,13.20
2020,04,13,15,24,13.20
2020,04,13,15,25,13.20
2020,04,13,15,26,13.20
2020,04,13,15,27,13.20
2020,04,13,15,28,13.30
2020,04,13,15,29,13.30
2020,04,13,15,30,13.30
2020,04,13,15,31,13.30
2020,04,13,15,32,13.30
2020,04,13,15,33,13.40
2020,04,13,15,34,13.50
2020,04,13,15,35,13.60
2020,04,13,15,36,13.70
2020,04,13,15,37,13.80
2020,04,13,15,38,13.80
2020,04,13,15,39,13.90
2020,04,13,15,40,13.90
2020,04,13,15,41,13.90
2020,04,13,15,42,13.90
2020,04,13,15,43,13.90
2020,04,13,15,44,14.00
2020,04,13,15,45,14.00
2020,04,13,15,46,13.90
2020,04,13,15,47,13.90
2020,04,13,15,48,13.90
2020,04,13,15,49,13.90
2020,04,13,15,50,13.90
2020,04,13,15,51,13.80
2020,04,13,15,52,13.80
2020,04,13,15,53,13.80
2020,04,13,15,54,13.80
2020,04,13,15,55,13.70
2020,04,13,15,56,13.70
2020,04,13,15,57,13.70
2020,04,13,15,58,13.70
2020,04,13,15,59,13.70
2020,04,13,16,00,13.70
2020,04,13,16,01,13.60
2020,04,13,16,02,13.60
2020,04,13,16,03,13.60
2020,04,13,16,04,13.60
2020,04,13,16,05,13.60
2020,04,13,16,06,13.60
2020,04,13,16,07,13.60
2020,04,13,16,08,13.60
2020,04,13,16,09,13.60
2020,04,13,16,10,13.60
2020,04,13,16,11,13.70
2020,04,13,16,12,13.70
2020,04,13,16,13,13.70
2020,04,13,16,14,13.80
2020,04,13,16,15,13.80
2020,04,13,16,16,13.80
2020,04,13,16,17,13.80
2020,04,13,16,18,13.90
2020,04,13,16,19,13.90
2020,04,13,16,20,13.90
2020,04,13,16,21,13.80
2020,04,13,16,22,13.80
2020,04,13,16,23,13.80
2020,04,13,16,24,13.80
2020,04,13,16,25,13.70
2020,04,13,16,26,13.70
2020,04,13,16,27,13.60
2020,04,13,16,28,13.60
2020,04,13,16,29,13.60
2020,04,13,16,30,13.60
2020,04,13,16,31,13.60
2020,04,13,16,32,13.60
2020,04,13,16,33,13.60
2020,04,13,16,34,13.60
2020,04,13,16,35,13.70
2020,04,13,16,36,13.70
2020,04,13,16,37,13.70
2020,04,13,16,38,13.70
2020,04,13,16,39,13.70
2020,04,13,16,40,13.70
2020,04,13,16,41,13.70
2020,04,13,16,42,13.60
2020,04,13,16,43,13.60
2020,04,13,16,44,13.50
2020,04,13,16,45,13.40
2020,04,13,16,46,13.40
2020,04,13,16,47,13.40
2020,04,13,16,48,13.30
2020,04,13,16,49,13.30
2020,04,13,16,50,13.30
2020,04,13,16,51,13.20
2020,04,13,16,52,13.20
2020,04,13,16,53,13.10
2020,04,13,16,54,13.10
2020,04,13,16,55,13.00
2020,04,13,16,56,13.00
2020,04,13,16,57,12.90
2020,04,13,16,58,12.90
2020,04,13,16,59,12.90
2020,04,13,17,00,12.90
2020,04,13,17,01,13.00
2020,04,13,17,02,13.00
2020,04,13,17,03,13.10
2020,04,13,17,04,13.10
2020,04,13,17,05,13.10
2020,04,13,17,06,13.20
2020,04,13,17,07,13.30
2020,04,13,17,08,13.40
2020,04,13,17,09,13.40
2020,04,13,17,10,13.40
2020,04,13,17,11,13.50
2020,04,13,17,12,13.50
2020,04,13,17,13,13.60
2020,04,13,17,14,13.60
2020,04,13,17,15,13.60
2020,04,13,17,16,13.60
2020,04,13,17,17,13.70
2020,04,13,17,18,13.70
2020,04,13,17,19,13.70
2020,04,13,17,20,13.60
2020,04,13,17,21,13.60
2020,04,13,17,22,13.60
2020,04,13,17,23,13.50
2020,04,13,17,24,13.50
2020,04,13,17,25,13.40
2020,04,13,17,26,13.40
2020,04,13,17,27,13.30
2020,04,13,17,28,13.30
2020,04,13,17,29,13.30
2020,04,13,17,30,13.30
2020,04,13,17,31,13.30
2020,04,13,17,32,13.30
2020,04,13,17,33,13.30
2020,04,13,17,34,13.40
2020,04,13,17,35,13.40
2020,04,13,17,36,13.50
2020,04,13,17,37,13.50
2020,04,13,17,38,13.60
2020,04,13,17,39,13.70
2020,04,13,17,40,13.70
2020,04,13,17,41,13.80
2020,04,13,17,42,13.80
2020,04,13,17,43,13.90
2020,04,13,17,44,13.90
2020,04,13,17,45,13.90